EW4719 Weather Reports


Display with metric or nautical units.
time (UTC)temp
F
wind
direction
speed
MPH
gust
MPH
rain 1hr
in
rain 24hr
in
rain mn
in
humidity
%
barometer
mb
20260905084505 56 271 6.0 14.0 0.00 0.02 0.00 76 1017.2
20260905083117 56 259 6.0 16.0 0.00 0.02 0.00 77 1017.0
20260905081506 55 238 7.0 17.0 0.00 0.02 0.00 78 1016.7
20260905080155 54 288 5.0 15.0 0.00 0.02 0.00 78 1016.5
20260905074524 53 280 4.0 14.0 0.00 0.02 0.00 81 1016.5
20260905073135 53 278 5.0 12.0 0.00 0.02 0.00 82 1016.3
20260905071558 53 242 3.0 11.0 0.00 0.02 0.00 82 1016.1
20260905064545 52 267 7.0 14.0 0.00 0.02 0.00 83 1015.5
20260905063056 51 295 5.0 16.0 0.00 0.02 0.00 83 1015.2
20260905061549 51 250 5.0 13.0 0.00 0.02 0.00 83 1015.1
20260905060048 51 265 5.0 15.0 0.00 0.02 0.00 84 1014.9
20260905054550 51 249 7.0 17.0 0.00 0.02 0.00 84 1014.6
20260905053106 51 243 6.0 15.0 0.00 0.02 0.00 84 1014.6
20260905051555 51 238 6.0 13.0 0.00 0.02 0.00 84 1014.2
20260905050111 51 215 6.0 14.0 0.00 0.02 0.00 84 1014.1
20260905044604 51 249 5.0 15.0 0.00 0.02 0.00 84 1013.9
20260905043134 51 256 3.0 15.0 0.00 0.02 0.00 84 1013.8
20260905041527 51 288 2.0 12.0 0.00 0.02 0.00 84 1013.6
20260905040047 50 245 5.0 13.0 0.00 0.02 0.00 84 1013.5
20260905034550 51 261 3.0 15.0 0.00 0.06 0.00 84 1013.0
20260905033114 51 280 6.0 20.0 0.00 0.06 0.00 85 1012.7
20260905031604 51 257 6.0 15.0 0.00 0.06 0.00 85 1012.3
20260905030117 51 286 7.0 15.0 0.00 0.06 0.00 85 1012.0
20260905024502 51 244 6.0 17.0 0.00 0.06 0.00 86 1011.7
20260905023112 51 228 7.0 16.0 0.00 0.06 0.00 86 1011.4
20260905021551 51 263 7.0 17.0 0.00 0.06 0.00 87 1011.5
20260905020107 51 234 7.0 14.0 0.00 0.06 0.00 88 1011.5
20260905014602 51 304 6.0 15.0 0.00 0.06 0.00 89 1011.2
20260905013121 51 239 6.0 15.0 0.00 0.06 0.00 89 1011.1
20260905011601 52 257 5.0 14.0 0.00 0.06 0.00 88 1011.1
20260905010107 53 336 7.0 18.0 0.00 0.06 0.00 85 1011.0
20260905004601 53 317 6.0 16.0 0.00 0.06 0.00 85 1010.6
20260905003058 53 239 7.0 21.0 0.00 0.06 0.00 85 1010.3
20260905001607 53 290 8.0 17.0 0.00 0.06 0.00 85 1010.2
20260905000112 53 259 7.0 18.0 0.00 0.06 0.00 85 1009.9
20260904234603 53 306 6.0 21.0 0.00 0.06 0.00 85 1009.7
20260904233127 53 269 8.0 23.0 0.00 0.06 0.00 86 1009.3
20260904231501 54 245 8.0 17.0 0.00 0.06 0.00 87 1009.2
20260904230109 54 271 8.0 19.0 0.00 0.06 0.00 87 1009.0
20260904224533 54 324 6.0 20.0 0.00 0.06 0.06 86 1009.0
20260904223038 53 257 9.0 20.0 0.00 0.06 0.06 87 1008.8
20260904221533 54 25 8.0 17.0 0.00 0.06 0.06 87 1008.9
20260904220041 54 254 6.0 23.0 0.00 0.06 0.06 86 1009.0
20260904214528 54 257 6.0 22.0 0.00 0.06 0.06 86 1008.8
20260904213009 54 244 7.0 16.0 0.00 0.06 0.06 86 1008.5
20260904211515 54 200 6.0 16.0 0.00 0.06 0.06 87 1008.4
20260904210150 54 215 5.0 17.0 0.00 0.06 0.06 87 1008.5
20260904204606 54 269 7.0 15.0 0.00 0.06 0.06 86 1008.4
20260904203136 54 267 7.0 17.0 0.00 0.06 0.06 85 1008.4
20260904201502 54 238 5.0 17.0 0.00 0.06 0.06 85 1008.3
20260904200121 55 298 6.0 21.0 0.00 0.06 0.06 84 1008.2
20260904194612 55 178 9.0 17.0 0.00 0.06 0.06 84 1007.9
20260904193057 55 221 9.0 19.0 0.00 0.06 0.06 83 1007.8
20260904191551 55 270 6.0 23.0 0.00 0.06 0.06 84 1007.8
20260904190120 55 271 7.0 16.0 0.00 0.06 0.06 84 1007.5
20260904184615 55 317 9.0 20.0 0.00 0.06 0.06 83 1007.3
20260904183121 55 254 8.0 25.0 0.00 0.06 0.06 82 1007.1
20260904181613 56 222 9.0 20.0 0.00 0.06 0.06 80 1007.0
20260904180121 57 301 10.0 20.0 0.00 0.06 0.06 77 1006.8
20260904174506 58 302 10.0 19.0 0.00 0.06 0.06 76 1006.5
20260904173124 58 269 9.0 17.0 0.00 0.06 0.06 76 1006.4
20260904171511 58 178 8.0 23.0 0.00 0.06 0.06 77 1006.3
20260904170123 59 284 8.0 17.0 0.00 0.06 0.06 77 1006.2
20260904164512 59 262 8.0 20.0 0.00 0.11 0.06 76 1006.1
20260904163131 59 302 9.0 20.0 0.00 0.11 0.06 75 1005.9
20260904161512 59 257 9.0 27.0 0.00 0.11 0.06 75 1005.7
20260904160110 60 267 12.0 28.0 0.00 0.11 0.06 73 1005.5
20260904154513 60 219 7.0 19.0 0.00 0.16 0.06 74 1005.4
20260904153114 60 242 11.0 23.0 0.00 0.16 0.06 73 1005.2
20260904151548 60 202 10.0 18.0 0.00 0.16 0.06 72 1005.2
20260904150109 60 244 10.0 30.0 0.00 0.16 0.06 69 1005.0
20260904144558 60 206 9.0 20.0 0.00 0.16 0.06 71 1004.8
20260904143119 61 249 11.0 23.0 0.00 0.16 0.06 70 1004.5
20260904141602 60 280 9.0 23.0 0.00 0.16 0.06 73 1004.4
20260904140055 60 244 12.0 22.0 0.00 0.16 0.06 73 1004.0
20260904134527 59 232 10.0 22.0 0.00 0.16 0.06 73 1004.2
20260904133011 61 242 7.0 19.0 0.00 0.16 0.06 72 1004.1
20260904131507 60 267 10.0 21.0 0.00 0.16 0.06 71 1003.8
20260904130131 61 226 11.0 23.0 0.00 0.16 0.06 71 1003.7
20260904124604 61 289 10.0 23.0 0.00 0.16 0.06 71 1003.2
20260904123103 61 313 10.0 24.0 0.00 0.16 0.06 71 1003.0
20260904121558 59 237 10.0 24.0 0.00 0.16 0.06 72 1003.0
20260904120138 60 245 9.0 25.0 0.01 0.16 0.06 72 1003.0
20260904114523 59 209 10.0 22.0 0.02 0.16 0.06 75 1002.2
20260904113138 59 325 10.0 25.0 0.02 0.16 0.06 81 1002.0
20260904111506 58 246 11.0 29.0 0.01 0.15 0.05 85 1001.9
20260904104606 58 232 11.0 24.0 0.00 0.14 0.04 86 1001.5
20260904103102 57 224 8.0 18.0 0.00 0.14 0.04 87 1001.3
20260904101558 58 198 10.0 19.0 0.00 0.14 0.04 84 1001.1
20260904100120 59 194 8.0 30.0 0.00 0.14 0.04 83 1000.9
20260904094558 59 146 8.0 21.0 0.00 0.14 0.04 80 1001.2
20260904093026 59 231 10.0 23.0 0.00 0.14 0.04 80 1000.9
20260904091529 58 237 9.0 30.0 0.00 0.14 0.04 80 1000.8